Time,TemperatureF,DewpointF,PressureIn,WindDirection,WindDirectionDegrees,WindSpeedMPH,WindSpeedGustMPH,Humidity,HourlyPrecipIn,Conditions,Clouds,dailyrainin,SolarRadiationWatts/m^2,SoftwareType,DateUTC
2013-09-14 00:02:00,71.0,55.0,-100.00,West,279,7.0,11.0,57,0.00,,,0.00,0.000000,,2013-09-14 07:02:00,
2013-09-14 00:12:00,71.0,55.0,-100.00,West,279,7.0,11.0,57,0.00,,,0.00,0.000000,,2013-09-14 07:12:00,
2013-09-14 00:21:00,71.0,55.0,-100.00,West,279,7.0,11.0,57,0.00,,,0.00,0.000000,,2013-09-14 07:21:00,
2013-09-14 00:52:00,69.0,56.0,-100.00,WNW,284,5.0,9.0,63,0.00,,,0.00,0.000000,,2013-09-14 07:52:00,
2013-09-14 01:02:00,69.0,56.0,-100.00,WNW,284,5.0,9.0,63,0.00,,,0.00,0.000000,,2013-09-14 08:02:00,
2013-09-14 01:12:00,69.0,56.0,-100.00,WNW,284,5.0,9.0,63,0.00,,,0.00,0.000000,,2013-09-14 08:12:00,
2013-09-14 01:21:00,69.0,56.0,-100.00,WNW,284,5.0,9.0,63,0.00,,,0.00,0.000000,,2013-09-14 08:21:00,
2013-09-14 01:52:00,66.0,54.0,-100.00,ENE,76,2.0,8.0,66,0.00,,,0.00,0.000000,,2013-09-14 08:52:00,
2013-09-14 02:02:00,66.0,54.0,-100.00,ENE,76,2.0,8.0,66,0.00,,,0.00,0.000000,,2013-09-14 09:02:00,
2013-09-14 02:12:00,66.0,54.0,-100.00,ENE,76,2.0,8.0,66,0.00,,,0.00,0.000000,,2013-09-14 09:12:00,
2013-09-14 02:21:00,66.0,54.0,-100.00,ENE,76,2.0,8.0,66,0.00,,,0.00,0.000000,,2013-09-14 09:21:00,
2013-09-14 02:53:00,67.0,56.0,-100.00,SW,225,2.0,4.0,67,0.00,,,0.00,0.000000,,2013-09-14 09:53:00,
2013-09-14 03:03:00,67.0,56.0,-100.00,SW,225,2.0,4.0,67,0.00,,,0.00,0.000000,,2013-09-14 10:03:00,
2013-09-14 03:12:00,67.0,56.0,-100.00,SW,225,2.0,4.0,67,0.00,,,0.00,0.000000,,2013-09-14 10:12:00,
2013-09-14 03:23:00,67.0,56.0,-100.00,SW,225,2.0,4.0,67,0.00,,,0.00,0.000000,,2013-09-14 10:23:00,
2013-09-14 03:53:00,66.0,57.0,-100.00,WNW,298,6.0,8.0,72,0.00,,,0.00,0.000000,,2013-09-14 10:53:00,
2013-09-14 04:02:00,66.0,57.0,-100.00,WNW,298,6.0,8.0,72,0.00,,,0.00,0.000000,,2013-09-14 11:02:00,
2013-09-14 04:12:00,66.0,57.0,-100.00,WNW,298,6.0,8.0,72,0.00,,,0.00,0.000000,,2013-09-14 11:12:00,
2013-09-14 04:22:00,66.0,57.0,-100.00,WNW,298,6.0,8.0,72,0.00,,,0.00,0.000000,,2013-09-14 11:22:00,
2013-09-14 04:52:00,62.0,55.0,-100.00,North,10,1.0,7.0,78,0.00,,,0.00,0.000000,,2013-09-14 11:52:00,
2013-09-14 05:02:00,62.0,55.0,-100.00,North,10,1.0,7.0,78,0.00,,,0.00,0.000000,,2013-09-14 12:02:00,
2013-09-14 05:12:00,62.0,55.0,-100.00,North,10,1.0,7.0,78,0.00,,,0.00,0.000000,,2013-09-14 12:12:00,
2013-09-14 05:22:00,62.0,55.0,-100.00,North,10,1.0,7.0,78,0.00,,,0.00,0.000000,,2013-09-14 12:22:00,
2013-09-14 05:52:00,62.0,56.0,-100.00,NNE,27,2.0,5.0,81,0.00,,,0.00,0.000000,,2013-09-14 12:52:00,
2013-09-14 06:01:00,62.0,56.0,-100.00,NNE,27,2.0,5.0,81,0.00,,,0.00,0.000000,,2013-09-14 13:01:00,
2013-09-14 06:12:00,62.0,56.0,-100.00,NNE,27,2.0,5.0,81,0.00,,,0.00,0.000000,,2013-09-14 13:12:00,
2013-09-14 06:21:00,62.0,56.0,-100.00,NNE,27,2.0,5.0,81,0.00,,,0.00,0.000000,,2013-09-14 13:21:00,
2013-09-14 06:52:00,59.0,57.0,-100.00,North,360,3.0,5.0,92,0.00,,,0.00,0.000000,,2013-09-14 13:52:00,
2013-09-14 07:02:00,59.0,57.0,-100.00,North,360,3.0,5.0,92,0.00,,,0.00,0.000000,,2013-09-14 14:02:00,
2013-09-14 07:11:00,59.0,57.0,-100.00,North,360,3.0,5.0,92,0.00,,,0.00,0.000000,,2013-09-14 14:11:00,
2013-09-14 07:22:00,59.0,57.0,-100.00,North,360,3.0,5.0,92,0.00,,,0.00,0.000000,,2013-09-14 14:22:00,
2013-09-14 07:52:00,61.0,57.0,-100.00,SE,142,3.0,5.0,86,0.00,,,0.00,43.000000,,2013-09-14 14:52:00,
2013-09-14 08:02:00,61.0,57.0,-100.00,SE,142,3.0,5.0,86,0.00,,,0.00,43.000000,,2013-09-14 15:02:00,
2013-09-14 08:11:00,61.0,57.0,-100.00,SE,142,3.0,5.0,86,0.00,,,0.00,43.000000,,2013-09-14 15:11:00,
2013-09-14 08:22:00,61.0,57.0,-100.00,SE,142,3.0,5.0,86,0.00,,,0.00,43.000000,,2013-09-14 15:22:00,
2013-09-14 08:53:00,69.0,57.0,-100.00,WNW,288,1.0,3.0,66,0.00,,,0.00,252.000000,,2013-09-14 15:53:00,
2013-09-14 09:03:00,69.0,57.0,-100.00,WNW,288,1.0,3.0,66,0.00,,,0.00,252.000000,,2013-09-14 16:03:00,
2013-09-14 09:13:00,69.0,57.0,-100.00,WNW,288,1.0,3.0,66,0.00,,,0.00,252.000000,,2013-09-14 16:13:00,
2013-09-14 09:23:00,69.0,57.0,-100.00,WNW,288,1.0,3.0,66,0.00,,,0.00,252.000000,,2013-09-14 16:23:00,
2013-09-14 09:54:00,69.0,57.0,-100.00,WNW,295,3.0,6.0,65,0.00,,,0.00,331.000000,,2013-09-14 16:54:00,
2013-09-14 10:03:00,69.0,57.0,-100.00,WNW,295,3.0,6.0,65,0.00,,,0.00,331.000000,,2013-09-14 17:03:00,
2013-09-14 10:11:00,69.0,57.0,-100.00,WNW,295,3.0,6.0,65,0.00,,,0.00,331.000000,,2013-09-14 17:11:00,
2013-09-14 10:23:00,69.0,57.0,-100.00,WNW,295,3.0,6.0,65,0.00,,,0.00,331.000000,,2013-09-14 17:23:00,
2013-09-14 10:54:00,75.0,58.0,-100.00,West,280,3.0,8.0,56,0.00,,,0.00,496.000000,,2013-09-14 17:54:00,
2013-09-14 11:02:00,75.0,58.0,-100.00,West,280,3.0,8.0,56,0.00,,,0.00,496.000000,,2013-09-14 18:02:00,
2013-09-14 11:12:00,75.0,58.0,-100.00,West,280,3.0,8.0,56,0.00,,,0.00,496.000000,,2013-09-14 18:12:00,
2013-09-14 11:21:00,75.0,58.0,-100.00,West,280,3.0,8.0,56,0.00,,,0.00,496.000000,,2013-09-14 18:21:00,
2013-09-14 11:52:00,79.0,58.0,-100.00,West,277,4.0,9.0,48,0.00,,,0.00,712.000000,,2013-09-14 18:52:00,
2013-09-14 12:02:00,79.0,58.0,-100.00,West,277,4.0,9.0,48,0.00,,,0.00,712.000000,,2013-09-14 19:02:00,
2013-09-14 12:11:00,79.0,58.0,-100.00,West,277,4.0,9.0,48,0.00,,,0.00,712.000000,,2013-09-14 19:11:00,
2013-09-14 12:22:00,79.0,58.0,-100.00,West,277,4.0,9.0,48,0.00,,,0.00,712.000000,,2013-09-14 19:22:00,
2013-09-14 12:52:00,81.0,57.0,-100.00,WNW,291,5.0,8.0,44,0.00,,,0.00,778.000000,,2013-09-14 19:52:00,
2013-09-14 13:02:00,81.0,57.0,-100.00,WNW,291,5.0,8.0,44,0.00,,,0.00,778.000000,,2013-09-14 20:02:00,
2013-09-14 13:12:00,81.0,57.0,-100.00,WNW,291,5.0,8.0,44,0.00,,,0.00,778.000000,,2013-09-14 20:12:00,
2013-09-14 13:22:00,81.0,57.0,-100.00,WNW,291,5.0,8.0,44,0.00,,,0.00,778.000000,,2013-09-14 20:22:00,
2013-09-14 13:52:00,85.0,58.0,-100.00,WNW,296,6.0,10.0,40,0.00,,,0.00,846.000000,,2013-09-14 20:52:00,
2013-09-14 14:02:00,85.0,58.0,-100.00,WNW,296,6.0,10.0,40,0.00,,,0.00,846.000000,,2013-09-14 21:02:00,
2013-09-14 14:11:00,85.0,58.0,-100.00,WNW,296,6.0,10.0,40,0.00,,,0.00,846.000000,,2013-09-14 21:11:00,
2013-09-14 14:22:00,85.0,58.0,-100.00,WNW,296,6.0,10.0,40,0.00,,,0.00,846.000000,,2013-09-14 21:22:00,
2013-09-14 14:54:00,88.0,60.0,-100.00,NW,315,7.0,10.0,39,0.00,,,0.00,795.000000,,2013-09-14 21:54:00,
2013-09-14 15:04:00,88.0,60.0,-100.00,NW,315,7.0,10.0,39,0.00,,,0.00,795.000000,,2013-09-14 22:04:00,
2013-09-14 15:13:00,88.0,60.0,-100.00,NW,315,7.0,10.0,39,0.00,,,0.00,795.000000,,2013-09-14 22:13:00,
2013-09-14 15:24:00,88.0,60.0,-100.00,NW,315,7.0,10.0,39,0.00,,,0.00,795.000000,,2013-09-14 22:24:00,
2013-09-14 15:53:00,88.0,61.0,-100.00,WNW,297,8.0,10.0,40,0.00,,,0.00,469.000000,,2013-09-14 22:53:00,
2013-09-14 16:03:00,88.0,61.0,-100.00,WNW,297,8.0,10.0,40,0.00,,,0.00,469.000000,,2013-09-14 23:03:00,
2013-09-14 16:11:00,88.0,61.0,-100.00,WNW,297,8.0,10.0,40,0.00,,,0.00,469.000000,,2013-09-14 23:11:00,
2013-09-14 16:23:00,88.0,61.0,-100.00,WNW,297,8.0,10.0,40,0.00,,,0.00,469.000000,,2013-09-14 23:23:00,
2013-09-14 16:53:00,90.0,62.0,-100.00,NW,305,7.0,11.0,39,0.00,,,0.00,507.000000,,2013-09-14 23:53:00,
2013-09-14 17:02:00,90.0,62.0,-100.00,NW,305,7.0,11.0,39,0.00,,,0.00,507.000000,,2013-09-15 00:02:00,
2013-09-14 17:12:00,90.0,62.0,-100.00,NW,305,7.0,11.0,39,0.00,,,0.00,507.000000,,2013-09-15 00:12:00,
2013-09-14 17:22:00,90.0,62.0,-100.00,NW,305,7.0,11.0,39,0.00,,,0.00,507.000000,,2013-09-15 00:22:00,
2013-09-14 17:53:00,89.0,61.0,-100.00,WNW,298,6.0,10.0,40,0.00,,,0.00,257.000000,,2013-09-15 00:53:00,
2013-09-14 18:01:00,89.0,61.0,-100.00,WNW,298,6.0,10.0,40,0.00,,,0.00,257.000000,,2013-09-15 01:01:00,
2013-09-14 18:11:00,89.0,61.0,-100.00,WNW,298,6.0,10.0,40,0.00,,,0.00,257.000000,,2013-09-15 01:11:00,
2013-09-14 18:22:00,89.0,61.0,-100.00,WNW,298,6.0,10.0,40,0.00,,,0.00,257.000000,,2013-09-15 01:22:00,
2013-09-14 19:12:00,84.0,65.0,-100.00,WNW,297,7.0,8.0,53,0.00,,,0.00,151.000000,,2013-09-15 02:12:00,
2013-09-14 19:22:00,84.0,65.0,-100.00,WNW,297,7.0,8.0,53,0.00,,,0.00,151.000000,,2013-09-15 02:22:00,
2013-09-14 19:52:00,82.0,57.0,-100.00,North,359,5.0,10.0,43,0.00,,,0.00,18.000000,,2013-09-15 02:52:00,
2013-09-14 20:02:00,82.0,57.0,-100.00,North,359,5.0,10.0,43,0.00,,,0.00,18.000000,,2013-09-15 03:02:00,
2013-09-14 20:11:00,82.0,57.0,-100.00,North,359,5.0,10.0,43,0.00,,,0.00,18.000000,,2013-09-15 03:11:00,
2013-09-14 20:21:00,82.0,57.0,-100.00,North,359,5.0,10.0,43,0.00,,,0.00,18.000000,,2013-09-15 03:21:00,
2013-09-14 20:55:00,79.0,56.0,-100.00,NE,41,0.0,10.0,46,0.00,,,0.00,0.000000,,2013-09-15 03:55:00,
2013-09-14 21:02:00,-999.0,-99.9,-100.00,NE,41,0.0,10.0,-999,-99.99,,,-99.99,0.000000,,2013-09-15 04:02:00,
2013-09-14 21:13:00,79.0,56.0,-100.00,NE,41,0.0,10.0,46,0.00,,,0.00,0.000000,,2013-09-15 04:13:00,
2013-09-14 21:24:00,79.0,56.0,-100.00,NE,41,0.0,10.0,46,0.00,,,0.00,0.000000,,2013-09-15 04:24:00,
2013-09-14 21:54:00,73.0,55.0,-100.00,NNE,18,3.0,5.0,54,0.00,,,0.00,0.000000,,2013-09-15 04:54:00,
2013-09-14 22:03:00,73.0,55.0,-100.00,NNE,18,3.0,5.0,54,0.00,,,0.00,0.000000,,2013-09-15 05:03:00,
2013-09-14 22:13:00,73.0,55.0,-100.00,NNE,18,3.0,5.0,54,0.00,,,0.00,0.000000,,2013-09-15 05:13:00,
2013-09-14 22:22:00,73.0,55.0,-100.00,NNE,18,3.0,5.0,54,0.00,,,0.00,0.000000,,2013-09-15 05:22:00,
2013-09-14 22:52:00,74.0,52.0,-100.00,NE,39,4.0,8.0,47,0.00,,,0.00,0.000000,,2013-09-15 05:52:00,
2013-09-14 23:02:00,74.0,52.0,-100.00,NE,39,4.0,8.0,47,0.00,,,0.00,0.000000,,2013-09-15 06:02:00,
2013-09-14 23:12:00,74.0,52.0,-100.00,NE,39,4.0,8.0,47,0.00,,,0.00,0.000000,,2013-09-15 06:12:00,
2013-09-14 23:21:00,74.0,52.0,-100.00,NE,39,4.0,8.0,47,0.00,,,0.00,0.000000,,2013-09-15 06:21:00,
2013-09-14 23:52:00,74.0,51.0,-100.00,North,359,5.0,7.0,44,0.00,,,0.00,0.000000,,2013-09-15 06:52:00,